AirNav   Air Wisconsin Up To $57,000 Bonus
 
 529 users online  

19LS Riverside Medical Center Heliport
Franklinton, Louisiana, USA

GOING TO FRANKLINTON?


FAA INFORMATION EFFECTIVE 08 SEPTEMBER 2022

Location

FAA Identifier: 19LS
Lat/Long: 30-50-03.5600N 090-09-12.8900W
30-50.059333N 090-09.214833W
30.8343222,-90.1535806
(estimated)
Elevation: 146 ft. / 45 m (estimated)
Time zone: UTC -5 (UTC -6 during Standard Time)
Zip code: 70438

Heliport Operations

Heliport use: Private use. Permission required prior to landing
Activation date: 07/2009
Control tower: no
ARTCC: HOUSTON CENTER
FSS: DE RIDDER FLIGHT SERVICE STATION
Attendance: UNATNDD
Wind indicator: lighted
Segmented circle: no

Heliport Communications

WX AWOS-3PT at BXA (15 nm E): 118.025 (985-732-6224)

Nearby radio navigation aids

VOR radial/distance  VOR name  Freq  Var
PCUr302/27.3PICAYUNE VOR/DME113.9505E
MCBr166/28.7MC COMB VORTAC116.7003E

 
NDB name  Hdg/Dist  Freq  Var  ID
BOGALUSA259/15.335300WGVB --. ...- -...

Heliport Services

Runway Information

Helipad H1

Dimensions: 40 x 40 ft. / 12 x 12 m
Surface: concrete
Runway edge lights: PERI
Latitude: 30-50.059333N
Longitude: 090-09.214833W
Elevation: 146.0 ft.
Traffic pattern: leftleft

Heliport Ownership and Management from official FAA records

Ownership: Privately-owned
Owner: RIVERSIDE MEDICAL CENTER
1900 S MAIN ST
FRANKLINTON, LA 70438
Phone 985-839-4431
Manager: SHAD JENKINS
1900 S MAIN ST
FRANKLINTON, LA 70438
Phone 985-795-4259

Additional Remarks

A52-H1 42 INCH POLE 6 FT W OF PAD; 25 FT POLE 80 FT W OF PAD.
OWNER DESIRES THIS ARPT NOT BE CHARTED.
FOR CD CTC HOUSTON ARTCC AT 281-230-5622.

Instrument Procedures

There are no published instrument procedures at 19LS.

Some nearby airports with instrument procedures:

KBXA - George R Carr Memorial Air Field (15 nm E)
KHDC - Hammond Northshore Regional Airport (23 nm SW)
KMCB - Mc Comb (Pike County) Airport/John E Lewis Field (26 nm NW)
0R0 - Columbia/Marion County Airport (33 nm NE)
KMJD - Picayune Municipal Airport (33 nm SE)
 
Loc | Ops | Rwys | IFR | FBO | Links
Com | Nav | Svcs | Stats | Notes
Aerial photo
No photo
 
Sectional chart

 
Airport distance calculator
Flying to Riverside Medical Center Heliport? Find the distance to fly.

From to 19LS

Sunrise and sunset
Times for 02-Oct-2022
 Local
(UTC-5)
 Zulu
(UTC)
Morning civil twilight06:3211:32
Sunrise06:5611:56
Sunset18:4423:44
Evening civil twilight19:0800:08

Current date and time
Zulu (UTC)  02-Oct-2022 11:20:12
Local (UTC-5)  02-Oct-2022 06:20:12
 
METAR
KBXA 
15nm E 
021055Z AUTO 00000KT 10SM CLR 09/08 A3005 RMK AO2 T00900077
KHDC 
23nm SW 
021100Z AUTO 00000KT 10SM CLR 10/09 A3006 RMK AO2
KMCB 
26nm NW 
021053Z AUTO 01005KT 10SM CLR 14/08 A3006 RMK AO2 SLP175 T01390083
TAF
KHDC 
23nm SW 
020521Z 0206/0306 00000KT P6SM SKC FM021600 35006KT P6SM SKC FM022300 00000KT P6SM SKC
KMCB 
26nm NW 
020521Z 0206/0306 VRB03KT P6SM SKC FM021700 36008KT P6SM SKC FM030100 VRB03KT P6SM FEW250
NOTAMs
Click for the latest NOTAMs
NOTAMs are issued by the DoD/FAA and will open in a separate window not controlled by AirNav.

 

 
 

Would you like to see your business listed on this page?

 If your business provides an interesting product or service to pilots, flight crews, aircraft, or users of the Riverside Medical Center Heliport, you should consider listing it here.  To start the listing process, click on the button below
 
Add a business
 

Other Pages about Riverside Medical Center Heliport

Update a link
 
Copyright © AirNav, LLC. All rights reserved. Privacy Policy  Contact